Wind_Speed
15 14 15 14 14 13 14 13 11 10 12 13 14 15 15 15 14 13 13 15 17 16 17 19 18 20 25 24 22 22 22 21 22 24 25 25 26 26 26 27 27 28 28 26 26 25 25 24 23 22 23 23 23 22 19 17 16 16 17 18 18 17 15 16 14 12 10 8 11 16 16 16 16 15 15 16 14 13 13 12 12 12 12 11 11
19 18 16 15 14 13 13 13 13 10 9 9 11 13 14 15 15 15 15 16 15 15 16 17 18 19 22 22 22 23 22 21 22 24 25 24 24 24 27 28 28 27 25 23 24 24 24 24 23 23 23 23 23 22 21 19 17 18 18 19 19 18 17 17 16 14 13 10 10 14 16 16 16 15 15 15 14 13 12 12 12 13 13 12 12
20 20 19 18 16 15 14 13 14 13 11 9 8 10 12 14 14 15 16 17 16 14 14 16 18 20 20 21 21 21 21 21 23 23 23 23 22 24 27 28 27 25 23 22 22 22 22 23 23 24 24 24 24 23 22 21 20 20 20 20 20 19 18 18 17 16 15 13 11 12 14 16 15 15 15 15 15 14 13 12 13 13 13 13 13
20 19 19 19 19 17 15 14 14 14 14 13 10 10 11 13 14 14 15 17 16 14 13 16 20 21 22 22 21 21 20 21 21 22 23 23 23 24 26 26 25 23 22 21 21 21 22 23 24 24 24 24 25 24 23 23 23 21 21 20 21 20 19 18 18 17 16 16 14 13 13 14 15 14 15 15 16 15 14 14 13 14 14 14 14
22 21 19 19 19 18 17 16 14 14 15 15 14 13 13 13 14 14 14 16 16 15 15 19 23 24 23 23 22 21 20 19 20 21 22 24 24 24 24 23 24 24 22 22 22 22 22 23 24 24 24 24 24 24 24 25 24 22 21 21 21 21 19 18 18 18 18 18 17 16 15 14 14 15 15 16 16 16 16 15 15 15 15 15 15
24 23 21 20 19 19 19 17 16 14 14 14 14 15 16 16 14 13 14 15 16 17 18 21 25 25 24 24 24 22 21 20 20 20 22 22 21 21 21 21 22 22 22 22 23 23 23 23 24 24 24 24 23 23 25 26 25 23 22 21 21 21 20 18 18 18 18 18 19 18 17 17 16 15 16 17 18 18 17 16 16 15 15 15 15
26 25 24 22 21 21 21 19 17 15 14 14 13 14 15 17 16 14 14 15 16 18 20 21 25 27 26 25 24 22 21 21 20 19 20 19 17 18 19 19 20 21 22 23 23 22 23 24 25 24 24 24 23 23 24 25 26 25 23 22 21 21 20 19 19 19 19 20 22 22 21 19 18 18 17 17 18 19 19 19 18 17 16 14 14
27 27 26 24 23 23 23 22 20 17 14 13 14 14 14 16 17 16 16 16 17 19 20 21 23 26 27 25 23 21 21 22 20 19 18 18 17 18 18 19 20 20 21 22 22 22 23 24 23 23 23 24 24 23 23 24 26 25 24 22 22 22 22 20 20 20 21 22 23 23 23 22 21 21 20 19 19 20 21 22 20 18 17 14 13
29 29 28 28 26 25 25 25 24 21 16 13 14 16 16 16 16 17 17 18 18 18 19 21 22 25 26 24 23 22 23 23 22 20 19 19 19 18 18 18 19 20 21 21 21 21 21 22 21 22 22 23 24 23 23 24 24 24 23 23 24 24 23 22 22 22 22 23 23 23 24 25 23 23 22 20 19 19 20 21 21 19 18 17 15
31 31 31 31 29 27 26 27 28 26 20 15 13 17 19 18 16 16 17 18 18 18 19 21 22 23 26 26 25 24 24 23 22 21 20 20 19 19 18 17 18 19 19 20 20 20 21 21 20 20 21 22 24 24 23 22 22 22 22 23 24 24 24 23 24 24 23 23 24 24 25 26 26 24 22 20 18 18 19 19 19 19 19 18 18
32 32 33 32 31 30 29 29 31 30 25 19 15 15 19 20 18 16 16 17 18 18 20 22 22 23 25 26 25 24 24 23 23 22 21 20 20 19 18 17 17 18 18 18 19 19 20 19 19 20 21 22 22 22 21 20 20 19 20 22 23 24 24 25 25 25 23 23 25 24 22 25 27 26 23 21 19 18 19 18 18 18 18 18 19
32 33 33 33 33 33 33 32 33 33 29 24 19 17 16 18 18 17 16 17 17 18 20 22 22 22 24 26 25 24 23 23 24 23 22 22 22 20 18 18 18 18 18 18 19 19 19 19 19 21 21 21 21 19 18 18 19 18 19 20 21 22 22 23 24 25 24 24 25 23 21 24 27 27 25 23 20 19 19 18 18 17 17 18 19
33 33 33 34 35 35 35 35 35 35 33 28 22 18 16 15 16 17 16 15 16 18 20 21 23 24 25 26 26 24 23 23 24 23 22 22 22 20 19 19 19 18 18 19 19 20 20 20 21 21 21 20 19 17 17 17 18 18 18 18 18 18 18 19 20 21 21 21 22 22 22 23 25 26 26 23 21 21 20 19 18 17 18 18 19
34 34 34 35 35 35 36 36 38 38 37 33 26 19 16 13 13 15 17 16 16 18 19 20 23 25 25 25 25 24 23 23 23 22 22 22 21 20 20 21 20 19 19 20 21 20 20 21 22 22 20 19 19 17 16 16 16 16 17 17 17 16 16 16 17 17 18 19 20 21 22 23 24 25 25 23 22 21 19 19 18 17 18 19 19
34 35 35 36 36 36 36 37 38 40 41 38 32 24 18 15 14 14 16 18 17 18 19 20 22 25 25 25 25 25 24 22 22 22 22 22 22 22 22 22 22 22 22 23 22 22 21 21 22 21 19 19 18 17 16 15 15 15 16 15 15 14 14 14 15 17 18 19 20 21 21 22 23 23 23 21 20 19 19 18 17 17 17 17 17
33 34 36 37 37 36 36 36 37 40 42 42 38 32 25 20 18 16 15 17 17 17 18 19 22 25 26 26 26 26 26 24 24 24 23 22 23 23 23 23 23 24 24 23 23 22 21 22 23 22 20 19 18 16 14 13 13 13 13 13 12 12 12 13 13 15 17 18 19 19 18 19 21 22 21 20 19 18 16 15 14 14 13 11 10
32 33 34 36 37 36 35 35 36 37 40 41 40 37 32 27 23 22 19 15 15 16 18 20 22 25 27 27 26 27 29 28 26 24 24 24 24 25 24 23 23 24 24 23 23 22 22 22 23 22 20 19 17 15 14 13 13 13 12 11 10 10 10 11 11 11 12 13 15 17 17 18 18 19 18 16 15 13 11 10 9 9 9 7 7
31 30 31 32 35 36 36 34 33 34 36 38 37 36 34 31 28 25 23 20 15 13 14 16 18 21 24 25 26 27 28 27 25 25 25 25 25 26 25 24 23 23 24 23 22 22 22 22 21 19 18 19 18 16 15 14 13 13 12 11 11 11 11 10 9 9 9 9 10 12 14 13 12 12 12 11 9 8 7 7 7 7 8 8 10
30 29 28 29 30 33 35 34 32 31 31 32 33 33 32 30 28 26 24 21 18 14 13 11 9 10 17 22 24 27 28 27 27 28 29 27 27 27 26 25 25 24 24 23 22 21 21 21 20 19 19 19 18 17 16 15 14 13 12 12 13 13 13 11 10 9 9 10 10 10 10 10 9 9 9 8 8 8 7 7 8 9 10 9 10
28 28 27 27 28 30 32 33 33 31 29 27 27 28 29 29 27 26 24 21 17 14 11 10 7 4 3 13 20 23 26 28 29 30 30 30 29 28 26 25 25 25 25 24 22 21 20 20 20 21 20 19 20 19 17 16 15 14 14 14 14 14 13 13 12 11 11 10 10 10 10 9 9 9 8 8 8 9 8 7 7 8 9 9 10
27 28 28 28 28 28 28 30 31 31 30 28 25 24 24 26 26 26 25 22 21 20 17 11 7 9 10 4 7 13 17 23 28 30 30 30 29 28 26 25 25 25 25 24 22 21 21 20 20 21 21 21 20 19 17 16 16 15 16 15 14 13 13 13 14 14 13 11 11 11 10 9 8 8 7 7 7 8 8 8 8 8 9 10 10
25 27 29 29 29 29 28 27 28 29 30 30 29 26 24 22 22 22 22 23 22 23 24 21 16 14 16 16 12 7 3 8 19 27 28 27 27 28 27 26 27 26 26 25 24 23 22 21 21 22 22 22 20 19 18 17 17 16 17 17 15 14 14 14 15 15 13 11 10 10 8 7 7 6 6 6 7 7 7 9 10 10 10 10 10
24 25 27 29 30 30 29 28 28 28 28 29 29 29 28 25 23 20 19 19 19 19 21 22 21 19 19 21 22 19 17 12 4 16 22 20 21 23 23 24 25 26 26 27 26 25 24 23 23 23 22 21 21 20 19 19 18 17 17 17 16 16 16 15 14 12 11 10 9 8 7 6 5 5 5 6 7 8 8 9 9 10 9 9 9
24 24 26 28 29 30 30 30 30 30 30 29 29 30 30 30 28 26 24 21 19 18 17 16 17 19 19 20 22 23 23 24 19 10 11 12 12 13 15 18 20 21 23 25 25 25 24 24 24 23 22 22 22 21 20 19 19 18 17 17 17 17 16 15 13 12 10 9 9 8 7 7 6 6 6 7 7 8 8 8 8 8 8 7 7
24 24 24 26 27 29 29 30 31 32 32 32 32 31 31 30 30 30 30 29 26 23 21 18 16 15 15 16 17 19 19 22 24 23 17 10 8 9 10 12 13 14 17 20 22 23 23 24 24 23 23 23 22 22 22 21 20 19 18 17 16 15 14 14 13 11 10 9 9 9 8 8 7 7 7 7 7 7 7 6 6 6 6 5 6
24 23 23 24 25 26 27 28 30 31 32 32 32 32 31 30 30 30 30 30 30 28 26 24 21 18 16 14 13 12 12 14 17 22 23 21 18 15 13 11 10 12 15 17 18 19 20 21 22 22 21 20 18 19 20 19 18 17 16 15 13 12 12 11 10 9 8 8 8 8 7 7 7 6 6 5 5 4 4 3 3 3 3 3 4
24 23 22 21 22 24 25 26 28 29 30 31 31 32 31 30 28 29 28 28 28 28 27 27 26 25 23 20 16 12 8 7 9 12 15 18 20 20 19 17 14 13 14 15 15 16 17 17 17 17 16 16 15 14 15 15 14 13 13 12 11 10 9 8 8 7 5 4 4 4 4 4 3 3 2 1 1 1 1 1 1 1 1 1 2
23 23 21 20 20 22 23 24 26 27 28 30 30 31 32 31 30 29 29 27 26 26 26 27 27 27 26 25 23 20 15 10 7 6 7 10 13 16 17 18 18 18 18 17 16 17 17 18 18 18 17 16 16 15 14 14 13 12 11 9 8 6 5 4 4 3 2 2 3 4 4 3 1 1 2 2 2 2 3 3 2 2 2 2 2
20 21 22 20 20 21 22 23 24 26 27 29 30 30 30 30 30 30 29 28 27 25 24 24 25 25 25 25 25 25 23 19 15 11 8 7 9 11 13 14 15 16 17 16 16 16 18 19 19 18 17 17 16 14 14 13 12 11 8 7 5 4 2 1 1 1 2 2 3 3 3 3 3 4 4 4 4 4 4 3 3 2 3 2 2
19 19 21 22 21 20 21 22 23 24 25 26 27 28 28 28 29 29 29 28 27 25 23 22 21 21 22 23 23 24 24 24 22 20 17 15 13 14 15 16 16 17 17 17 16 17 17 17 17 17 16 15 13 12 11 9 8 7 6 5 4 3 3 3 3 3 3 3 3 4 5 5 6 6 5 5 5 4 4 3 2 2 2 2 2
18 17 19 21 21 20 20 21 22 23 24 24 25 26 26 26 26 27 27 26 25 24 23 21 19 17 17 17 19 20 21 21 22 22 22 22 20 20 19 19 20 20 19 17 16 16 15 14 14 14 12 11 9 8 7 6 5 4 3 2 2 2 2 3 3 4 4 5 5 6 6 6 6 6 5 4 4 4 3 3 3 3 3 3 3
17 16 16 18 20 20 20 21 21 22 22 22 23 24 24 24 24 25 25 25 23 22 21 20 19 17 15 14 14 14 15 15 16 17 18 19 18 19 19 19 18 17 15 13 12 12 12 12 11 10 9 8 7 5 4 3 2 2 1 2 2 3 4 5 6 6 6 7 7 7 7 6 6 5 4 4 4 3 4 4 3 4 4 4 4
16 15 15 15 17 18 19 19 20 21 22 22 22 23 24 24 24 24 24 25 24 21 19 19 20 18 16 15 14 13 13 12 12 13 13 14 14 14 15 15 15 13 10 10 10 10 10 10 9 8 7 6 4 2 1 2 2 3 4 5 5 7 7 8 8 9 9 9 8 8 7 6 6 5 5 4 4 4 4 4 5 5 5 5 5
15 15 14 14 15 16 17 18 19 20 22 22 22 22 23 23 23 23 24 26 27 23 19 17 18 18 17 16 16 15 14 13 12 12 11 11 11 11 11 10 10 9 7 7 8 8 8 8 7 6 4 3 2 2 3 5 6 6 7 8 9 10 11 11 11 10 10 9 8 7 7 6 6 6 6 6 6 5 6 6 6 7 7 7 7
14 14 14 14 14 14 15 16 17 18 19 20 20 21 21 21 22 23 23 25 27 26 21 18 17 16 15 14 14 14 14 13 12 11 10 9 8 7 6 6 7 6 6 5 5 6 6 5 4 3 1 2 4 5 7 9 9 9 10 11 12 13 13 12 11 10 10 9 8 7 7 7 7 7 7 7 7 7 7 8 8 8 8 9 9
14 14 13 13 13 13 13 13 14 15 17 17 18 19 20 21 21 22 22 23 24 24 21 19 17 15 12 10 10 9 10 10 9 9 9 8 6 5 4 5 5 4 3 2 2 3 4 3 1 0 2 5 7 8 9 11 11 12 12 12 13 13 12 12 11 10 9 9 8 8 8 7 7 8 8 8 8 8 9 9 9 9 9 10 10
13 14 13 12 11 11 11 11 12 13 14 15 16 17 19 20 20 21 21 21 21 21 19 18 19 18 15 11 9 7 6 6 6 7 7 7 6 5 4 3 3 2 2 2 2 2 2 1 2 4 5 7 9 10 11 12 12 13 13 12 12 12 11 11 11 9 8 8 8 8 8 8 8 9 9 10 10 10 10 10 10 10 10 10 10
12 13 13 12 10 9 9 10 10 11 11 12 14 15 17 19 20 20 20 20 20 20 17 17 20 23 20 14 11 9 7 7 6 5 6 6 6 5 3 2 2 3 2 2 1 1 1 3 5 7 8 10 11 11 12 12 12 12 11 11 11 11 10 10 10 9 8 9 9 9 9 9 9 9 10 11 11 11 11 11 10 9 8 9 8
11 11 12 12 10 7 6 8 9 9 10 11 12 14 15 17 18 19 19 19 19 17 15 16 22 26 23 17 14 11 8 8 8 7 6 6 5 4 3 1 1 1 1 0 1 2 4 6 9 10 11 12 12 12 12 12 12 11 10 10 10 10 10 9 9 9 9 10 10 10 10 10 10 10 10 11 11 11 11 11 11 9 8 8 8
10 10 11 12 10 7 5 6 8 9 10 10 11 13 14 16 17 18 18 18 17 16 14 16 23 26 24 22 20 14 7 6 8 8 7 6 5 4 3 2 2 2 3 3 4 5 7 10 12 13 13 13 12 12 11 11 10 10 10 9 9 9 9 9 9 10 10 10 11 11 11 11 10 10 9 10 10 10 10 10 10 9 9 9 9
10 11 12 12 11 8 6 6 6 7 9 10 11 12 13 15 15 17 17 16 15 15 15 17 21 24 23 22 23 19 11 8 9 9 7 6 5 3 3 5 5 5 6 7 8 10 11 13 13 13 12 12 11 10 10 10 9 9 9 9 8 8 8 9 9 9 9 10 11 11 11 11 10 9 9 10 9 9 9 8 8 8 8 8 8
10 12 13 12 10 9 8 8 7 6 8 10 11 10 11 13 14 15 17 16 14 13 14 15 17 21 21 19 20 20 16 12 11 8 7 8 8 5 6 8 8 8 10 11 11 12 12 12 11 11 10 10 9 9 9 9 9 9 9 9 8 8 9 9 8 8 8 9 9 10 10 10 9 9 9 10 9 8 8 8 8 8 8 7 7
10 12 13 13 11 10 9 9 9 9 9 11 11 9 8 10 12 15 16 15 13 12 13 13 15 19 19 16 16 17 15 13 12 10 8 9 10 8 9 9 8 9 11 12 10 9 9 8 8 8 7 7 7 8 8 9 9 8 8 8 8 8 8 8 7 7 7 8 9 9 9 8 7 7 7 8 7 7 7 8 7 7 8 8 7
9 9 11 12 13 12 11 10 10 10 10 12 12 9 7 8 10 13 15 15 13 11 11 12 14 17 17 14 13 14 13 13 14 13 12 10 9 7 9 9 7 8 10 10 9 7 6 6 5 5 5 5 6 6 7 7 8 8 7 6 6 6 5 6 6 7 7 7 7 7 6 6 6 5 5 5 6 6 6 7 6 6 7 7 7
8 7 8 10 12 13 13 12 10 9 10 11 11 9 7 7 8 11 14 14 12 10 10 10 12 14 15 14 12 11 12 13 13 13 13 12 11 9 7 7 6 6 7 8 8 8 6 5 4 3 3 4 5 5 5 6 7 7 6 5 4 4 4 5 7 8 8 7 5 4 3 3 4 4 3 4 4 4 4 5 5 5 6 6 6
9 7 7 8 10 12 12 12 11 10 10 11 10 8 7 6 7 9 12 13 12 10 9 9 10 12 14 12 10 10 11 12 12 12 13 12 11 11 9 6 6 5 5 5 6 7 6 5 3 2 2 3 3 3 4 4 4 5 5 4 4 5 6 7 8 8 8 6 4 2 2 1 1 2 2 3 3 2 2 2 2 3 5 5 6
10 8 7 7 9 10 11 11 11 11 11 12 12 10 7 5 5 8 10 12 11 9 7 8 9 10 10 9 8 9 11 11 10 10 10 10 9 8 8 7 6 4 4 4 4 3 3 3 3 3 3 3 2 1 2 2 3 4 4 4 5 6 7 8 8 7 5 3 2 1 1 1 1 1 1 1 2 2 2 1 1 0 2 4 4
11 8 7 7 8 10 11 11 11 11 10 12 13 12 8 6 6 7 9 10 11 9 7 8 8 8 8 7 5 6 7 8 8 7 7 7 7 7 5 5 5 4 2 1 1 1 1 1 2 3 4 4 3 3 2 2 2 4 4 5 6 7 7 7 6 4 3 1 1 1 1 2 2 2 3 2 2 2 2 3 3 3 1 1 2
10 7 5 5 7 9 10 11 11 11 10 10 12 12 10 7 6 6 7 9 10 9 8 8 8 8 9 7 5 4 5 5 6 6 6 5 6 7 5 3 3 3 2 1 1 3 3 4 4 5 5 5 4 3 3 3 3 4 4 5 6 6 6 5 4 3 1 0 1 2 3 3 4 4 4 3 3 3 3 4 5 5 3 1 1
9 6 4 4 6 9 11 11 12 12 11 9 9 10 10 9 7 6 6 7 9 9 8 8 8 8 8 7 6 7 7 5 5 5 4 3 5 7 7 5 4 3 2 2 1 2 4 4 5 5 4 4 3 3 3 4 4 5 5 5 6 6 5 4 3 2 1 1 2 3 4 5 6 5 5 4 3 2 2 3 5 7 5 3 1
10 8 6 6 7 10 12 12 13 12 11 9 8 8 8 8 8 7 6 6 7 8 8 7 8 9 8 7 6 6 6 6 6 5 3 3 4 5 7 7 7 5 3 2 2 2 2 3 3 3 3 3 3 3 4 4 5 5 6 6 6 5 5 4 3 2 2 2 3 4 5 6 7 7 6 5 3 2 1 2 5 7 7 4 2
Wind_Direction
354 345 336 328 322 317 312 305 298 296 299 299 297 295 293 293 288 279 274 269 265 262 261 266 257 223 207 207 210 216 222 228 233 232 225 221 220 221 222 223 221 218 216 214 212 211 214 216 216 215 214 213 212 212 212 213 212 210 211 213 216 219 216 219 224 222 225 219 199 201 205 205 207 207 204 205 206 206 207 207 211 213 212 209 208
13 5 354 341 331 320 309 300 294 290 292 299 300 294 289 290 287 277 268 264 260 257 258 258 245 220 208 209 214 220 223 227 232 230 224 223 223 222 222 221 220 220 217 215 215 214 213 216 217 215 214 213 213 212 213 215 215 214 214 215 219 220 214 215 221 220 224 222 202 198 198 199 204 205 205 207 207 209 215 218 221 223 222 219 217
18 15 7 357 346 332 319 306 295 288 286 291 300 297 289 283 281 275 267 264 258 250 251 247 226 212 211 213 216 222 225 228 232 229 225 225 225 224 223 220 219 220 217 216 219 217 215 217 216 213 212 212 212 212 212 215 217 218 219 218 221 223 215 213 218 220 222 220 211 206 204 202 204 205 204 205 206 210 217 223 227 228 227 225 224
15 15 12 6 359 349 337 324 309 297 289 287 287 290 288 279 274 271 267 265 259 244 236 229 217 212 216 217 218 223 225 226 229 229 226 224 223 224 224 222 220 219 218 219 220 219 217 217 216 214 213 213 214 212 212 214 216 219 222 221 223 225 219 214 216 220 221 220 216 212 211 211 212 210 208 207 207 211 215 219 224 228 228 227 229
14 13 11 9 5 0 353 341 326 311 298 290 282 277 278 275 269 265 261 260 256 242 228 220 215 215 218 220 222 226 227 225 227 229 226 220 218 221 224 222 219 218 217 218 220 220 219 217 216 216 215 216 216 215 214 214 214 218 222 222 222 224 223 219 220 223 221 220 220 216 213 216 218 217 216 215 215 216 218 220 223 227 229 229 231
15 13 12 11 8 5 360 352 340 323 307 297 287 275 271 269 262 253 250 251 249 241 230 222 219 219 220 222 224 226 227 228 229 230 228 220 214 217 222 220 216 216 217 219 222 223 221 219 218 218 217 217 217 217 218 217 215 217 220 220 221 223 224 224 225 228 224 222 223 221 217 218 220 222 221 223 225 225 225 227 227 230 233 235 237
16 15 14 13 12 9 4 359 352 336 315 298 288 276 267 262 257 249 245 247 247 241 234 228 223 221 222 224 224 224 226 230 232 233 231 224 216 216 220 219 216 217 220 221 223 224 223 222 221 220 219 220 219 218 218 218 218 218 219 219 221 224 227 227 228 230 229 227 226 224 221 221 222 224 223 224 229 231 231 233 233 234 236 238 241
15 16 16 15 13 12 8 4 359 349 329 301 282 271 263 255 251 248 243 243 245 242 237 232 227 223 223 225 224 223 225 227 229 232 230 225 219 216 216 218 219 220 221 222 221 221 222 222 222 223 223 224 223 219 218 221 222 221 220 221 222 224 227 228 229 231 232 233 232 227 223 225 226 225 223 223 228 232 232 233 235 237 238 239 240
16 17 18 18 17 13 10 7 3 357 344 315 283 268 262 255 245 242 241 241 244 245 238 232 230 227 225 225 225 224 226 227 226 227 226 224 221 216 215 218 220 222 222 223 223 224 223 223 224 226 225 225 224 222 222 225 228 227 225 223 223 225 226 227 230 232 233 237 238 231 225 227 229 226 225 225 230 236 236 234 236 240 241 240 240
19 18 18 19 19 17 13 10 6 2 352 333 298 270 261 256 247 241 241 242 245 249 242 232 231 230 227 226 225 223 226 227 225 225 227 227 224 219 217 218 220 222 223 224 225 226 225 224 224 224 223 222 223 223 222 224 226 228 228 225 225 226 227 229 232 235 235 237 239 235 228 228 230 229 229 232 238 244 243 234 231 237 240 242 244
21 20 18 17 18 18 16 12 10 7 359 345 321 290 269 260 252 246 245 244 246 251 247 237 232 229 226 225 223 222 224 225 223 223 226 228 226 222 221 222 221 222 224 224 223 223 223 221 219 218 218 218 220 220 218 218 222 225 225 225 228 229 229 231 234 237 238 238 241 240 232 229 231 232 236 241 243 245 243 233 227 233 239 241 245
24 21 19 16 16 17 16 14 12 11 6 355 340 322 298 274 258 251 250 248 248 253 251 243 234 227 223 222 221 222 222 221 221 223 224 225 225 222 221 224 224 223 223 225 224 222 221 220 217 216 214 214 217 218 216 216 218 221 222 225 229 229 230 233 235 238 238 237 239 241 235 232 234 235 236 242 246 245 241 233 227 230 236 239 244
25 23 20 17 16 17 17 15 14 13 11 5 353 341 323 295 269 259 259 259 259 260 257 247 235 226 222 222 221 222 221 220 222 224 224 225 224 221 220 223 225 224 223 225 225 221 218 218 220 217 212 211 215 216 214 215 218 221 224 226 229 230 231 232 234 236 236 236 238 239 238 237 238 236 235 240 248 248 242 235 230 231 236 240 244
27 24 21 19 17 17 17 17 15 14 14 11 5 354 340 323 297 276 268 267 269 268 265 254 237 228 227 227 225 223 221 220 223 224 223 224 223 221 221 221 220 220 220 223 225 223 219 219 220 216 208 207 211 211 212 218 222 224 225 225 226 229 230 229 229 232 233 235 237 240 239 236 233 232 235 242 249 248 242 238 235 235 239 242 245
28 26 23 21 18 16 17 17 16 16 16 15 12 6 356 345 332 309 285 276 272 265 260 253 239 231 232 232 227 222 221 221 224 224 222 220 220 221 222 220 217 216 218 221 223 223 222 222 223 218 208 204 207 210 215 219 220 220 220 220 221 223 227 228 229 232 234 234 235 238 237 232 230 233 239 244 247 245 241 238 236 237 240 243 246
29 27 26 24 21 18 17 18 18 17 17 17 16 13 9 0 355 346 317 289 272 255 245 244 238 231 232 233 227 221 221 222 221 220 218 216 216 219 221 220 218 218 219 220 222 223 223 222 220 214 205 203 206 209 210 208 209 211 211 210 211 215 220 225 228 232 234 234 234 235 233 230 231 237 242 243 242 240 235 232 230 230 231 231 234
28 27 27 26 24 22 20 20 20 19 19 19 19 18 16 11 7 3 349 319 282 251 235 235 235 231 231 234 232 226 223 221 217 213 213 213 215 217 219 220 221 220 219 220 222 221 220 220 217 208 199 201 206 206 201 195 194 198 196 194 199 205 209 214 220 223 225 228 229 229 230 231 232 234 236 234 231 226 218 212 213 215 214 222 245
26 25 26 27 26 26 26 24 22 21 22 23 23 22 21 20 17 12 5 350 320 278 247 236 237 234 231 233 236 233 230 226 219 213 212 214 217 219 220 222 224 223 221 220 219 218 217 220 220 213 203 202 205 205 200 193 190 192 192 191 195 201 203 206 213 212 205 203 206 209 214 217 217 219 219 216 217 220 217 215 223 233 239 248 260
24 24 25 26 27 28 30 29 26 24 24 26 27 28 28 28 27 25 20 10 350 321 290 269 256 242 231 228 231 235 234 231 225 217 214 216 220 222 224 225 226 224 221 218 215 214 215 217 219 218 211 205 205 204 200 196 194 195 196 195 196 200 202 202 207 206 192 181 180 186 191 194 199 209 212 212 221 236 243 239 240 252 261 260 255
25 25 25 28 30 30 31 32 31 29 27 26 29 34 37 38 37 37 36 32 24 9 337 311 317 351 239 221 224 230 233 232 228 222 216 216 221 224 224 225 228 225 219 215 213 212 213 214 216 217 212 203 201 201 196 194 194 196 198 198 199 201 199 196 197 201 197 191 191 196 199 200 205 213 217 218 226 240 253 255 252 255 260 260 256
26 27 27 29 32 32 32 32 33 33 32 30 30 33 37 40 42 45 47 47 48 48 41 23 11 32 47 82 199 216 226 230 229 225 218 214 219 223 220 219 225 225 218 214 213 211 210 210 211 209 203 197 196 197 195 195 196 195 196 197 199 200 197 194 196 197 198 199 198 195 193 194 199 207 215 221 227 236 249 259 263 263 260 260 263
24 27 29 30 32 33 33 32 33 33 34 34 35 34 33 33 35 39 45 49 52 56 57 55 53 51 50 53 65 92 149 220 227 225 219 211 212 217 214 213 219 223 220 215 211 209 207 205 202 198 193 191 193 196 198 201 200 196 194 193 193 194 195 195 194 190 185 187 189 187 184 189 200 211 220 230 239 246 252 258 263 266 268 268 268
23 25 28 31 32 33 33 33 33 33 32 34 37 38 37 35 34 36 38 42 47 50 52 54 57 58 55 51 52 59 65 68 151 211 214 210 208 208 207 208 211 214 213 209 205 203 200 193 187 185 185 187 190 191 193 195 193 190 189 188 186 188 191 191 187 180 175 178 184 189 192 200 213 229 242 252 259 262 263 263 262 263 265 268 270
24 25 28 30 32 33 33 34 34 34 33 34 35 37 37 37 38 40 40 39 41 42 39 38 41 46 50 49 48 49 53 56 68 111 176 202 205 195 193 200 203 204 203 198 192 191 188 181 176 176 178 181 183 182 181 181 181 180 181 182 181 182 183 180 174 170 172 176 181 189 195 201 214 230 243 252 257 258 259 260 261 263 265 268 272
26 27 28 31 33 32 33 34 35 34 33 33 34 35 35 35 36 39 40 40 41 41 39 36 32 31 34 39 42 43 42 44 55 73 93 119 145 152 163 176 183 189 191 186 181 179 178 175 172 170 167 167 170 172 170 169 168 168 167 167 168 169 169 168 167 169 175 180 186 192 196 200 208 218 226 236 244 249 253 256 260 267 274 279 283
27 27 28 32 34 33 32 33 34 33 31 31 32 33 33 33 34 35 37 38 39 40 41 41 41 39 35 32 32 36 33 29 40 58 71 82 94 105 113 123 143 164 168 164 161 163 164 165 166 164 160 159 162 164 161 158 156 155 152 150 151 154 156 158 158 162 169 178 186 193 197 200 205 213 222 234 242 245 249 254 264 278 290 297 301
27 26 27 30 32 31 31 31 31 30 29 30 31 31 32 32 32 32 33 33 35 37 39 41 44 46 46 44 40 35 30 18 22 40 55 66 77 86 92 96 105 122 129 127 129 135 138 142 145 145 144 143 144 145 142 139 138 138 136 137 142 145 146 145 143 148 161 178 195 210 216 217 217 221 223 225 220 202 156 140 162 268 316 336 334
27 25 26 29 31 31 31 30 29 29 28 29 31 32 33 33 33 33 32 31 31 33 35 38 42 44 45 47 48 47 45 41 35 38 52 66 75 81 88 93 96 99 100 99 102 106 109 112 115 118 122 124 124 122 121 120 121 121 120 126 134 136 130 118 110 118 146 208 229 232 237 236 217 145 113 112 118 122 114 112 114 103 81 57 28
29 28 28 31 33 33 33 32 32 31 31 30 31 32 33 34 34 34 34 32 31 31 32 35 40 42 43 45 48 51 54 56 59 63 71 88 99 101 103 106 109 109 107 105 102 97 96 98 100 103 108 110 107 105 105 106 110 115 121 134 148 156 156 145 125 138 174 202 206 198 180 155 138 127 121 121 124 117 109 104 99 87 76 63 40
30 31 31 32 33 35 37 37 36 35 34 32 31 31 32 32 33 34 34 32 31 30 31 33 35 40 44 45 48 53 59 62 66 70 73 80 92 102 107 111 110 106 102 100 96 89 85 86 88 89 90 91 90 92 95 97 104 114 127 146 165 175 175 172 164 158 159 160 155 145 140 138 134 129 126 126 121 112 103 94 84 71 61 51 32
31 33 32 32 33 36 40 40 38 37 36 35 33 32 31 30 30 30 30 30 29 30 30 30 31 35 41 46 49 54 59 62 66 69 71 74 79 83 88 90 89 86 82 80 82 83 80 81 84 85 83 81 81 83 85 85 90 99 112 146 176 185 183 178 167 153 146 148 148 143 137 132 127 123 120 113 106 99 86 71 61 56 53 56 53
31 33 31 30 32 35 37 38 37 37 36 35 34 34 34 31 28 27 26 25 26 28 30 31 32 34 40 45 46 47 52 57 63 69 73 74 75 76 76 75 75 75 69 64 70 77 75 71 72 73 69 66 68 71 74 79 86 102 153 190 185 178 172 161 149 141 139 141 141 136 131 127 121 114 104 91 80 74 66 59 58 57 57 56 51
31 33 31 29 30 32 33 33 33 33 34 34 34 34 35 33 30 27 26 24 24 26 31 33 34 36 42 48 50 48 49 55 61 68 74 76 77 78 76 72 70 70 61 46 49 62 63 58 56 54 51 50 53 62 93 143 165 171 175 175 170 165 156 142 135 133 134 134 134 132 128 123 115 106 98 90 82 74 71 71 68 64 62 57 49
32 33 32 30 30 30 31 30 29 29 29 32 34 34 33 32 29 27 25 23 23 26 31 35 34 34 38 44 48 50 52 55 58 61 66 70 72 73 70 64 61 65 60 43 38 43 42 37 34 33 32 42 76 143 160 161 159 159 159 159 156 150 141 134 132 133 131 129 127 123 117 109 105 101 97 93 91 89 85 82 77 73 69 64 59
29 31 34 33 30 29 28 28 28 27 27 30 34 34 32 29 27 25 23 21 21 23 28 33 33 31 31 34 37 40 42 44 47 48 50 55 60 59 49 33 27 39 53 45 29 25 19 11 7 8 33 130 139 148 152 148 144 144 147 147 143 137 132 130 129 127 123 120 116 110 106 103 101 99 96 94 94 92 87 83 78 74 72 69 67
23 23 27 30 29 27 28 31 30 27 27 31 33 32 30 27 25 24 22 20 19 20 24 28 26 22 20 22 25 28 26 25 26 24 21 21 24 28 32 20 7 13 33 28 5 4 357 340 326 138 145 146 143 143 142 140 138 139 139 138 134 130 127 126 122 117 113 110 106 101 99 100 99 97 94 91 89 86 85 85 81 76 76 77 76
13 10 12 19 25 26 30 35 34 29 29 32 32 29 25 23 22 22 20 18 18 17 19 22 20 13 5 359 356 358 1 1 2 6 6 2 359 5 17 12 342 325 319 314 317 328 325 290 173 149 144 143 139 137 137 137 136 134 131 128 125 123 121 117 112 108 105 103 100 99 98 96 95 94 92 89 86 83 82 85 83 78 77 79 79
2 3 4 8 18 26 31 34 35 32 30 31 31 28 23 18 17 18 18 17 16 14 14 16 15 10 3 351 336 328 332 337 338 342 346 345 348 0 10 345 309 299 287 284 299 309 187 162 150 141 137 134 133 133 133 131 129 125 122 121 119 117 115 112 108 106 104 100 97 96 94 90 89 89 88 86 84 81 79 83 87 83 75 72 74
1 5 4 5 11 22 27 28 31 33 32 29 27 25 22 17 15 16 16 16 15 12 11 12 10 8 7 3 351 338 332 337 342 347 353 354 356 6 15 355 316 328 341 100 104 116 139 143 137 132 131 130 130 130 128 125 121 118 116 117 118 117 115 113 109 104 100 97 95 94 93 93 94 93 90 88 86 83 81 81 86 86 75 66 66
5 6 4 5 10 14 13 17 24 30 32 29 24 20 18 16 14 12 13 16 15 11 11 13 11 9 10 13 12 9 3 358 5 15 25 24 23 33 46 61 80 83 85 101 113 122 129 129 127 126 127 127 126 124 122 119 117 116 115 117 120 119 116 113 109 104 98 96 96 96 97 98 96 92 91 93 91 86 81 78 78 79 74 69 68
2 4 3 6 12 15 9 1 4 17 25 25 20 15 13 12 10 8 9 13 14 12 13 15 16 16 15 16 19 25 36 43 38 33 23 12 10 30 75 80 83 88 93 102 112 118 121 123 123 123 123 123 121 120 119 118 117 118 120 121 121 120 116 112 107 102 97 94 97 101 101 97 91 87 92 96 88 76 71 68 64 62 61 61 63
359 5 8 11 15 17 13 6 358 359 6 9 10 9 7 6 5 4 6 8 10 12 12 12 17 23 22 19 22 30 39 43 39 29 16 17 26 55 93 90 85 94 102 108 113 116 116 118 120 119 118 118 118 117 118 119 120 121 122 122 121 121 121 121 118 112 104 102 106 107 103 94 88 87 91 91 81 69 65 64 61 57 54 55 57
4 7 12 16 16 12 10 8 2 357 356 356 357 357 357 360 0 0 2 5 9 13 11 8 16 26 27 24 27 33 37 37 33 32 33 36 43 73 102 101 96 106 114 115 115 114 112 113 116 118 119 122 125 126 127 127 126 124 123 124 125 125 125 128 127 120 114 114 115 112 104 96 89 87 89 89 82 72 67 67 68 63 56 54 56
9 11 15 17 14 9 5 358 352 352 354 353 351 346 344 352 359 359 0 4 9 14 13 11 18 27 28 24 26 36 41 39 35 35 39 40 41 71 109 116 111 115 123 127 126 118 111 108 104 105 114 127 136 144 148 145 139 135 131 129 130 128 127 133 136 133 128 124 118 108 102 96 90 86 89 94 91 78 67 68 74 72 60 52 51
5 7 10 11 9 9 9 5 360 355 352 350 349 345 338 343 353 359 1 4 9 17 21 20 23 29 29 23 18 28 43 47 41 36 39 40 36 45 79 109 113 108 117 133 140 137 132 125 113 102 113 127 134 143 153 157 156 150 143 137 135 135 139 145 148 146 141 133 119 102 97 98 93 88 85 84 83 78 72 69 69 66 60 52 44
356 351 355 2 4 5 8 11 12 9 359 353 349 341 335 341 354 1 3 4 8 16 22 18 14 19 27 27 20 18 28 39 40 36 35 36 36 37 46 68 90 95 94 107 127 137 139 139 142 150 149 141 135 132 142 155 164 163 155 145 140 145 150 149 148 148 148 144 130 112 106 97 79 75 71 59 50 48 57 67 61 55 59 57 44
351 342 339 348 356 359 360 1 5 7 5 1 356 348 338 339 353 359 0 2 6 12 17 13 7 7 14 25 33 27 19 17 18 19 18 20 26 34 41 48 61 76 84 85 96 116 129 137 160 178 180 183 186 168 147 154 162 163 162 153 143 145 151 151 149 150 152 149 130 109 99 58 8 354 2 16 19 3 351 322 264 29 60 59 45
348 342 336 338 348 354 354 354 354 355 356 359 360 356 346 336 342 352 357 1 5 7 5 2 3 359 351 355 24 40 24 12 11 9 4 8 18 25 32 41 46 49 56 77 102 155 178 191 205 213 220 228 236 240 237 216 179 163 165 162 153 151 154 154 153 152 151 132 68 42 32 11 346 321 306 299 283 274 273 255 234 216 164 70 36
349 348 348 346 348 350 350 349 349 346 343 347 354 357 354 346 344 350 356 359 1 3 0 359 359 353 342 343 356 2 354 2 19 17 9 20 34 30 23 27 37 31 19 344 248 238 242 249 250 249 251 255 253 246 238 222 195 178 175 170 163 160 159 158 158 161 164 109 2 1 350 341 339 336 325 311 287 261 250 235 219 206 193 167 33
8 9 7 359 349 345 342 341 342 342 338 336 341 349 353 351 344 339 343 351 354 355 359 5 4 352 343 348 357 354 349 1 23 21 15 40 53 44 36 34 28 15 1 350 301 257 250 256 263 268 269 263 249 230 216 208 198 191 186 180 174 172 170 170 178 190 214 295 324 331 332 334 340 343 338 329 313 278 247 219 203 196 192 182 124
27 24 16 2 347 339 334 332 331 331 329 326 325 331 339 344 343 336 328 334 346 351 355 6 15 13 12 15 16 7 9 24 35 34 35 52 55 46 39 33 24 13 360 349 339 319 294 281 287 296 293 270 240 216 204 202 199 196 191 187 184 182 180 186 203 225 259 298 314 320 325 331 336 337 334 328 315 280 227 193 183 179 175 166 135
Height
1514 1512 1510 1509 1508 1506 1505 1504 1504 1504 1504 1503 1503 1502 1503 1502 1502 1502 1503 1503 1503 1504 1504 1505 1507 1509 1509 1510 1511 1513 1516 1517 1519 1520 1520 1521 1523 1525 1528 1531 1531 1531 1532 1536 1538 1540 1542 1544 1545 1547 1548 1550 1551 1552 1554 1555 1557 1558 1559 1561 1562 1563 1565 1567 1568 1569 1570 1570 1571 1571 1572 1574 1575 1576 1577 1578 1579 1580 1581 1581 1582 1583 1584 1584 1585
1512 1511 1509 1507 1506 1505 1504 1503 1502 1502 1502 1501 1500 1500 1500 1501 1501 1501 1500 1500 1500 1500 1501 1502 1504 1507 1508 1509 1510 1512 1513 1515 1515 1516 1517 1518 1520 1523 1525 1527 1528 1527 1530 1533 1535 1536 1539 1541 1543 1544 1546 1547 1549 1550 1552 1553 1555 1556 1557 1559 1560 1561 1563 1565 1566 1567 1568 1569 1570 1570 1571 1572 1573 1574 1575 1577 1578 1579 1580 1580 1581 1582 1582 1583 1583
1512 1510 1508 1506 1505 1503 1502 1501 1500 1500 1499 1499 1498 1498 1498 1499 1499 1499 1498 1498 1497 1498 1499 1500 1502 1504 1506 1507 1509 1509 1511 1512 1512 1513 1515 1517 1518 1520 1521 1523 1523 1525 1527 1530 1531 1533 1536 1538 1540 1541 1543 1545 1546 1547 1549 1551 1552 1554 1555 1557 1558 1559 1561 1563 1564 1565 1566 1567 1568 1569 1570 1571 1572 1573 1574 1575 1576 1577 1578 1579 1580 1580 1581 1581 1582
1512 1510 1508 1506 1504 1502 1500 1499 1498 1497 1497 1497 1497 1496 1496 1497 1496 1496 1495 1495 1495 1496 1497 1498 1499 1501 1503 1505 1507 1507 1508 1509 1510 1511 1513 1515 1516 1517 1519 1520 1521 1523 1525 1528 1529 1531 1534 1535 1537 1538 1540 1542 1543 1545 1546 1547 1549 1551 1552 1554 1556 1557 1559 1561 1562 1563 1564 1565 1566 1567 1568 1569 1571 1572 1573 1574 1575 1576 1577 1577 1578 1579 1579 1580 1581
1512 1510 1508 1506 1504 1501 1499 1497 1496 1495 1494 1494 1495 1495 1495 1495 1494 1493 1492 1492 1493 1494 1495 1495 1496 1498 1500 1503 1505 1505 1506 1507 1508 1508 1510 1513 1514 1515 1516 1519 1521 1522 1523 1525 1527 1529 1531 1533 1534 1536 1538 1539 1541 1542 1543 1544 1546 1548 1550 1552 1554 1555 1557 1558 1560 1560 1562 1563 1564 1565 1566 1567 1569 1570 1571 1572 1573 1574 1575 1575 1576 1577 1578 1578 1579
1512 1510 1507 1505 1503 1501 1498 1496 1494 1493 1492 1491 1492 1492 1492 1492 1492 1491 1490 1490 1491 1492 1493 1493 1494 1495 1498 1501 1503 1504 1505 1505 1506 1507 1508 1509 1512 1513 1514 1517 1519 1520 1522 1523 1525 1527 1528 1530 1531 1533 1535 1537 1538 1540 1541 1542 1543 1545 1548 1550 1551 1553 1554 1556 1557 1558 1559 1561 1562 1563 1564 1565 1566 1567 1569 1570 1571 1572 1573 1574 1575 1575 1576 1577 1577
1512 1509 1507 1505 1502 1500 1497 1495 1493 1491 1490 1489 1489 1489 1489 1490 1489 1489 1488 1488 1489 1490 1491 1491 1492 1494 1495 1498 1501 1503 1503 1503 1504 1506 1506 1507 1508 1510 1511 1513 1516 1517 1519 1521 1522 1524 1526 1527 1529 1530 1532 1534 1536 1537 1539 1540 1542 1543 1546 1548 1549 1551 1552 1553 1555 1556 1557 1558 1559 1560 1561 1562 1563 1564 1566 1567 1568 1570 1571 1572 1572 1573 1574 1575 1575
1511 1509 1506 1504 1502 1499 1497 1495 1492 1490 1489 1487 1487 1486 1486 1486 1487 1487 1486 1486 1487 1488 1489 1490 1491 1492 1494 1496 1498 1500 1500 1501 1502 1504 1504 1505 1506 1508 1509 1511 1512 1514 1516 1518 1520 1522 1523 1524 1526 1528 1530 1532 1533 1535 1537 1539 1540 1542 1544 1545 1547 1548 1549 1551 1552 1553 1554 1555 1555 1557 1558 1559 1561 1561 1563 1564 1565 1566 1568 1569 1570 1571 1572 1573 1573
1512 1509 1506 1504 1501 1499 1497 1494 1491 1489 1487 1485 1484 1483 1483 1483 1484 1484 1485 1485 1485 1486 1487 1488 1489 1490 1492 1494 1495 1497 1498 1499 1500 1501 1502 1503 1505 1506 1507 1508 1510 1512 1513 1515 1518 1519 1521 1522 1524 1526 1528 1529 1531 1532 1534 1536 1538 1540 1541 1542 1544 1545 1546 1548 1549 1550 1551 1551 1553 1555 1556 1557 1558 1559 1560 1561 1562 1563 1565 1566 1567 1569 1570 1571 1571
1512 1509 1506 1504 1502 1499 1497 1493 1491 1488 1485 1483 1482 1481 1480 1480 1481 1482 1482 1483 1484 1485 1486 1487 1487 1488 1490 1491 1492 1494 1495 1496 1498 1499 1501 1502 1503 1504 1505 1507 1508 1510 1511 1513 1515 1517 1518 1520 1522 1523 1525 1526 1528 1530 1532 1534 1536 1537 1538 1540 1541 1542 1544 1545 1546 1546 1548 1549 1550 1551 1554 1555 1555 1556 1558 1559 1560 1561 1562 1563 1565 1566 1567 1568 1569
1513 1509 1507 1505 1502 1500 1497 1493 1490 1487 1484 1482 1480 1478 1477 1478 1479 1479 1480 1481 1482 1483 1484 1484 1485 1487 1488 1489 1490 1491 1493 1495 1496 1498 1499 1501 1502 1503 1504 1505 1506 1508 1509 1511 1513 1514 1516 1518 1520 1521 1522 1524 1525 1528 1530 1532 1533 1534 1536 1537 1538 1539 1541 1542 1543 1543 1545 1546 1546 1548 1551 1552 1552 1554 1555 1556 1557 1558 1559 1561 1562 1563 1564 1565 1566
1514 1511 1508 1505 1502 1500 1496 1493 1490 1487 1484 1481 1479 1477 1476 1476 1477 1477 1478 1478 1479 1480 1481 1482 1484 1485 1486 1487 1488 1489 1491 1493 1495 1496 1497 1499 1500 1501 1502 1503 1505 1507 1508 1510 1511 1513 1514 1516 1517 1519 1520 1522 1523 1525 1527 1529 1531 1532 1533 1534 1535 1536 1538 1539 1540 1541 1542 1543 1544 1545 1547 1548 1549 1551 1552 1553 1555 1556 1557 1558 1559 1560 1561 1562 1563
1515 1512 1509 1506 1503 1500 1497 1494 1491 1487 1484 1481 1479 1477 1476 1475 1475 1475 1476 1476 1477 1478 1479 1480 1482 1483 1484 1485 1486 1488 1490 1491 1493 1494 1495 1497 1498 1499 1500 1502 1503 1505 1507 1508 1509 1511 1512 1514 1515 1516 1518 1520 1521 1523 1525 1526 1528 1529 1530 1532 1533 1534 1535 1536 1537 1539 1540 1540 1541 1542 1543 1545 1546 1547 1549 1551 1552 1553 1554 1555 1556 1557 1559 1560 1560
1516 1513 1510 1507 1504 1500 1497 1494 1491 1488 1485 1482 1479 1477 1475 1475 1474 1474 1474 1475 1475 1476 1478 1479 1480 1481 1482 1483 1484 1486 1488 1489 1491 1492 1493 1495 1496 1497 1498 1500 1502 1503 1505 1506 1508 1509 1511 1511 1512 1513 1515 1517 1519 1521 1523 1524 1526 1527 1528 1529 1531 1532 1533 1534 1535 1536 1537 1538 1538 1539 1539 1541 1542 1544 1545 1547 1548 1549 1551 1552 1553 1555 1556 1556 1557
1517 1514 1511 1508 1504 1501 1498 1495 1492 1489 1486 1483 1480 1478 1476 1475 1474 1474 1473 1473 1473 1475 1476 1476 1477 1479 1480 1480 1482 1484 1486 1487 1489 1490 1491 1493 1494 1495 1497 1498 1499 1501 1502 1504 1505 1507 1508 1509 1510 1511 1513 1515 1517 1519 1521 1522 1524 1525 1526 1527 1529 1530 1530 1531 1532 1533 1534 1535 1535 1536 1537 1538 1540 1541 1543 1544 1545 1546 1547 1548 1550 1551 1552 1553 1554
1518 1515 1512 1509 1506 1503 1499 1496 1494 1491 1488 1485 1482 1479 1476 1475 1474 1474 1473 1472 1472 1473 1474 1474 1475 1476 1477 1477 1479 1481 1483 1484 1486 1487 1489 1491 1492 1494 1495 1496 1497 1499 1500 1501 1503 1504 1506 1507 1508 1509 1511 1513 1515 1517 1519 1520 1522 1523 1524 1525 1526 1528 1529 1529 1530 1531 1531 1532 1533 1533 1535 1536 1538 1539 1540 1541 1542 1543 1544 1546 1547 1548 1550 1551 1552
1519 1517 1514 1511 1508 1505 1502 1499 1496 1493 1491 1488 1485 1482 1479 1476 1475 1474 1473 1472 1472 1472 1471 1472 1472 1473 1474 1476 1478 1479 1479 1480 1482 1485 1487 1489 1490 1492 1493 1494 1495 1496 1498 1499 1500 1502 1503 1504 1505 1506 1508 1511 1513 1515 1517 1519 1520 1521 1523 1524 1525 1526 1527 1528 1528 1529 1529 1530 1531 1532 1533 1534 1535 1537 1538 1539 1540 1541 1543 1544 1545 1547 1548 1549 1550
1521 1519 1517 1514 1512 1508 1505 1502 1499 1496 1494 1491 1488 1486 1483 1480 1477 1476 1474 1473 1473 1472 1471 1470 1470 1471 1472 1474 1476 1477 1477 1478 1481 1483 1484 1486 1488 1490 1491 1492 1493 1495 1496 1497 1498 1500 1501 1502 1504 1506 1507 1509 1511 1514 1515 1517 1519 1520 1521 1522 1523 1524 1525 1526 1527 1527 1528 1528 1529 1530 1532 1533 1534 1536 1537 1538 1539 1540 1541 1543 1544 1545 1546 1547 1548
1524 1522 1519 1517 1515 1512 1508 1505 1503 1500 1498 1495 1492 1490 1487 1484 1482 1479 1477 1475 1474 1473 1472 1470 1469 1469 1469 1471 1473 1474 1475 1478 1480 1480 1481 1483 1485 1487 1489 1490 1491 1493 1494 1496 1497 1498 1499 1501 1502 1504 1506 1508 1510 1512 1514 1515 1517 1519 1520 1521 1522 1523 1524 1525 1525 1526 1527 1528 1529 1530 1531 1532 1533 1535 1536 1537 1538 1539 1540 1541 1543 1543 1544 1545 1546
1527 1525 1523 1520 1518 1515 1512 1509 1507 1504 1502 1499 1497 1494 1492 1489 1487 1484 1481 1479 1477 1475 1474 1472 1471 1471 1470 1469 1471 1472 1473 1475 1477 1477 1478 1480 1482 1484 1486 1488 1489 1491 1492 1493 1495 1496 1497 1499 1500 1502 1504 1506 1508 1510 1512 1514 1515 1517 1518 1519 1520 1521 1522 1523 1524 1525 1526 1527 1528 1529 1530 1532 1533 1534 1535 1536 1537 1538 1539 1540 1541 1542 1543 1544 1544
1530 1528 1526 1523 1520 1518 1515 1513 1510 1508 1505 1503 1501 1498 1496 1494 1491 1489 1486 1483 1480 1478 1477 1475 1474 1474 1473 1471 1469 1470 1471 1472 1474 1475 1476 1477 1479 1481 1482 1484 1487 1489 1490 1491 1492 1494 1495 1497 1498 1500 1502 1504 1506 1508 1510 1512 1514 1515 1516 1517 1518 1519 1520 1521 1522 1524 1525 1526 1527 1528 1529 1531 1532 1532 1533 1535 1536 1537 1538 1538 1539 1540 1541 1541 1542
1533 1531 1528 1525 1522 1520 1518 1516 1513 1511 1509 1506 1504 1501 1499 1497 1495 1493 1491 1488 1485 1482 1481 1479 1478 1478 1478 1476 1472 1471 1471 1472 1473 1473 1473 1475 1476 1478 1479 1481 1484 1486 1487 1489 1490 1491 1492 1494 1496 1498 1500 1502 1504 1506 1508 1510 1512 1513 1514 1515 1517 1518 1518 1519 1521 1522 1523 1524 1526 1527 1528 1529 1530 1532 1533 1534 1534 1535 1536 1537 1537 1538 1538 1538 1539
1535 1533 1530 1527 1525 1522 1520 1518 1516 1514 1512 1509 1507 1504 1502 1500 1497 1495 1493 1492 1489 1487 1485 1484 1482 1480 1480 1480 1478 1475 1473 1474 1473 1472 1472 1475 1476 1476 1478 1480 1482 1483 1484 1486 1487 1489 1491 1492 1494 1496 1499 1501 1503 1505 1507 1509 1510 1512 1513 1514 1515 1516 1517 1518 1519 1520 1522 1523 1524 1526 1527 1528 1530 1531 1531 1532 1533 1534 1534 1534 1535 1535 1535 1536 1536
1537 1534 1532 1529 1527 1525 1523 1521 1519 1516 1514 1512 1509 1507 1504 1502 1500 1497 1495 1494 1492 1490 1488 1487 1485 1483 1482 1482 1482 1480 1479 1479 1476 1472 1472 1475 1476 1477 1479 1481 1482 1483 1484 1485 1486 1487 1489 1491 1493 1495 1497 1499 1501 1503 1505 1507 1509 1511 1512 1513 1514 1515 1515 1516 1518 1519 1521 1522 1524 1525 1526 1527 1528 1529 1530 1530 1531 1532 1532 1532 1532 1532 1533 1533 1533
1538 1536 1534 1532 1530 1528 1526 1523 1521 1519 1516 1514 1512 1509 1507 1504 1502 1500 1498 1496 1494 1493 1491 1489 1487 1486 1485 1484 1484 1483 1483 1484 1481 1476 1474 1476 1477 1478 1480 1481 1483 1485 1486 1487 1487 1487 1488 1489 1491 1493 1495 1497 1500 1502 1503 1506 1508 1510 1511 1512 1513 1514 1515 1516 1517 1518 1520 1521 1523 1524 1525 1526 1527 1527 1528 1529 1529 1530 1530 1530 1530 1530 1530 1530 1530
1539 1537 1536 1534 1532 1530 1528 1526 1524 1521 1519 1516 1514 1512 1509 1507 1505 1503 1501 1499 1497 1496 1494 1492 1490 1489 1488 1487 1487 1486 1485 1486 1485 1482 1480 1480 1480 1480 1482 1484 1486 1487 1488 1489 1489 1489 1490 1490 1491 1493 1495 1498 1502 1504 1504 1505 1507 1510 1511 1513 1514 1515 1516 1516 1517 1518 1519 1521 1522 1523 1524 1525 1525 1526 1526 1527 1527 1528 1528 1528 1528 1528 1528 1528 1528
1541 1539 1537 1535 1534 1532 1530 1528 1526 1524 1522 1519 1517 1515 1512 1510 1508 1506 1504 1502 1501 1499 1497 1496 1493 1491 1490 1490 1489 1488 1487 1487 1487 1486 1485 1484 1484 1484 1484 1486 1489 1490 1491 1492 1493 1493 1493 1493 1494 1495 1497 1500 1503 1506 1506 1507 1509 1511 1513 1515 1516 1517 1517 1517 1517 1518 1519 1520 1521 1522 1523 1523 1524 1524 1524 1525 1526 1526 1527 1527 1527 1527 1526 1526 1527
1542 1540 1538 1537 1535 1534 1532 1530 1528 1526 1524 1522 1520 1517 1515 1513 1511 1509 1507 1505 1504 1502 1500 1499 1496 1495 1494 1493 1492 1491 1489 1488 1488 1488 1488 1488 1488 1488 1488 1490 1491 1492 1493 1495 1497 1497 1496 1495 1495 1496 1497 1500 1504 1507 1507 1508 1510 1512 1514 1516 1517 1518 1518 1517 1518 1518 1518 1519 1520 1521 1521 1522 1522 1522 1523 1524 1525 1525 1526 1526 1526 1525 1525 1525 1525
1543 1542 1540 1538 1537 1535 1533 1532 1530 1528 1526 1524 1522 1520 1518 1516 1515 1513 1511 1509 1507 1505 1503 1502 1500 1498 1498 1497 1495 1494 1492 1491 1491 1490 1490 1490 1490 1490 1491 1492 1493 1494 1495 1497 1498 1499 1497 1496 1496 1497 1499 1501 1504 1507 1508 1509 1511 1513 1515 1517 1518 1518 1518 1518 1518 1518 1518 1518 1519 1519 1520 1520 1521 1521 1522 1523 1524 1524 1525 1525 1525 1524 1524 1524 1525
1545 1543 1542 1540 1538 1537 1535 1533 1532 1530 1528 1527 1525 1523 1521 1520 1518 1516 1514 1513 1511 1509 1507 1505 1503 1502 1501 1500 1499 1497 1496 1495 1494 1494 1493 1493 1492 1493 1493 1493 1494 1496 1496 1497 1498 1499 1499 1499 1499 1500 1501 1503 1505 1507 1509 1511 1512 1514 1516 1517 1518 1518 1518 1518 1518 1518 1518 1518 1519 1519 1519 1520 1520 1521 1522 1523 1523 1523 1524 1524 1524 1524 1524 1524 1524
1546 1544 1543 1541 1540 1538 1537 1535 1534 1532 1531 1529 1528 1526 1524 1523 1521 1519 1517 1516 1514 1512 1510 1508 1506 1505 1503 1502 1502 1501 1500 1499 1498 1498 1497 1497 1496 1496 1496 1496 1496 1497 1498 1499 1499 1501 1502 1502 1502 1502 1503 1505 1506 1508 1510 1511 1513 1514 1516 1517 1518 1518 1519 1519 1519 1519 1518 1519 1519 1519 1519 1519 1520 1520 1521 1521 1522 1523 1523 1523 1523 1523 1523 1523 1523
1547 1546 1544 1543 1542 1540 1539 1537 1536 1534 1533 1531 1530 1528 1527 1525 1523 1522 1520 1519 1517 1515 1513 1511 1509 1508 1506 1505 1504 1504 1503 1502 1502 1501 1500 1500 1500 1499 1499 1499 1499 1499 1500 1501 1502 1503 1504 1504 1504 1504 1505 1506 1507 1509 1510 1511 1513 1514 1515 1516 1517 1518 1519 1519 1519 1519 1519 1519 1519 1519 1519 1519 1519 1519 1520 1520 1521 1522 1522 1522 1522 1522 1523 1523 1523
1548 1547 1546 1544 1543 1542 1540 1539 1537 1536 1535 1533 1532 1530 1529 1527 1526 1524 1523 1521 1519 1517 1515 1513 1512 1511 1509 1508 1507 1506 1505 1505 1504 1503 1503 1502 1502 1502 1501 1501 1502 1502 1503 1504 1504 1505 1505 1505 1506 1506 1507 1508 1509 1510 1510 1511 1513 1514 1515 1515 1517 1518 1518 1519 1519 1519 1520 1520 1520 1520 1519 1519 1519 1519 1519 1520 1521 1521 1522 1522 1522 1522 1522 1522 1522
1549 1548 1547 1546 1544 1543 1542 1540 1539 1538 1536 1535 1533 1532 1531 1529 1528 1526 1525 1523 1520 1518 1517 1515 1514 1513 1512 1511 1510 1509 1508 1507 1506 1505 1505 1504 1504 1504 1504 1504 1504 1505 1505 1506 1506 1506 1506 1507 1507 1508 1509 1510 1510 1511 1511 1512 1513 1514 1515 1515 1516 1517 1518 1519 1519 1520 1520 1520 1520 1520 1519 1519 1519 1519 1520 1520 1521 1521 1521 1521 1522 1522 1522 1522 1521
1550 1549 1548 1546 1545 1544 1543 1542 1540 1539 1538 1536 1535 1534 1532 1531 1529 1528 1526 1524 1522 1520 1519 1517 1516 1515 1514 1513 1512 1510 1510 1509 1508 1508 1507 1506 1506 1506 1506 1506 1506 1506 1506 1507 1507 1508 1508 1508 1509 1510 1510 1511 1511 1512 1512 1513 1514 1515 1515 1516 1517 1517 1518 1519 1520 1520 1520 1520 1520 1520 1520 1520 1520 1520 1520 1520 1521 1521 1521 1521 1522 1522 1522 1521 1521
1551 1550 1549 1547 1546 1545 1544 1543 1542 1541 1539 1538 1536 1535 1534 1532 1531 1529 1527 1526 1524 1522 1521 1519 1518 1517 1516 1514 1513 1512 1511 1510 1509 1509 1508 1508 1508 1507 1507 1507 1507 1508 1508 1508 1509 1509 1509 1510 1510 1510 1511 1511 1512 1512 1513 1514 1515 1515 1516 1517 1517 1518 1518 1519 1519 1519 1519 1519 1520 1520 1520 1520 1520 1520 1520 1521 1521 1521 1521 1522 1522 1522 1522 1522 1522
1551 1550 1549 1548 1547 1546 1545 1544 1543 1542 1540 1539 1538 1536 1535 1533 1532 1530 1529 1527 1525 1524 1523 1521 1520 1518 1517 1515 1514 1513 1512 1511 1510 1510 1509 1509 1509 1508 1508 1508 1509 1509 1509 1510 1510 1510 1510 1510 1510 1511 1511 1512 1512 1513 1514 1515 1516 1516 1517 1517 1517 1518 1518 1518 1519 1519 1519 1519 1520 1520 1520 1521 1521 1521 1521 1521 1522 1522 1522 1522 1522 1522 1522 1522 1523
1552 1551 1549 1549 1548 1547 1546 1545 1543 1542 1541 1540 1539 1537 1536 1534 1533 1531 1530 1528 1527 1525 1523 1522 1521 1519 1517 1515 1514 1513 1512 1511 1511 1510 1510 1509 1509 1509 1509 1509 1509 1510 1510 1510 1510 1510 1511 1510 1511 1511 1512 1512 1513 1514 1515 1516 1516 1517 1517 1517 1518 1518 1518 1518 1519 1519 1519 1520 1520 1521 1521 1521 1522 1522 1522 1522 1523 1523 1523 1523 1523 1523 1523 1523 1523
1552 1551 1550 1549 1548 1547 1546 1545 1544 1543 1542 1541 1540 1539 1537 1536 1534 1532 1531 1529 1528 1526 1524 1523 1522 1520 1518 1515 1514 1512 1512 1511 1511 1510 1510 1510 1509 1509 1509 1510 1510 1510 1510 1510 1510 1511 1511 1511 1511 1512 1512 1513 1514 1515 1516 1516 1517 1517 1518 1518 1518 1518 1519 1519 1519 1520 1520 1520 1521 1521 1522 1523 1523 1523 1523 1523 1523 1523 1523 1523 1523 1523 1524 1524 1523
1552 1551 1550 1549 1548 1547 1546 1546 1545 1544 1543 1542 1541 1540 1538 1537 1535 1534 1532 1530 1529 1527 1526 1524 1523 1520 1518 1516 1514 1512 1512 1511 1511 1511 1510 1510 1510 1510 1510 1510 1511 1511 1511 1511 1511 1511 1511 1512 1512 1513 1513 1514 1515 1516 1517 1517 1518 1518 1518 1519 1519 1519 1519 1520 1520 1520 1521 1521 1522 1523 1523 1524 1524 1524 1524 1524 1524 1524 1524 1524 1524 1524 1524 1523 1523
1552 1551 1550 1549 1548 1547 1546 1546 1545 1545 1544 1543 1542 1540 1539 1538 1536 1535 1533 1532 1530 1529 1527 1526 1524 1522 1520 1518 1516 1513 1512 1512 1512 1512 1512 1511 1510 1510 1511 1511 1511 1512 1512 1512 1512 1512 1513 1513 1514 1514 1515 1515 1516 1517 1517 1518 1518 1519 1519 1520 1520 1520 1520 1521 1521 1522 1522 1523 1524 1524 1525 1525 1525 1525 1525 1525 1525 1525 1525 1524 1524 1524 1524 1523 1523
1552 1551 1550 1549 1548 1548 1547 1546 1545 1545 1544 1543 1542 1541 1540 1538 1537 1536 1534 1533 1531 1530 1528 1527 1526 1524 1522 1520 1518 1516 1515 1514 1514 1513 1513 1512 1511 1511 1512 1512 1513 1513 1513 1513 1514 1514 1514 1515 1515 1516 1516 1517 1517 1518 1518 1519 1520 1520 1520 1521 1521 1522 1522 1522 1523 1523 1524 1524 1525 1525 1525 1525 1526 1526 1525 1525 1526 1526 1525 1525 1525 1525 1524 1524 1524
1552 1552 1551 1550 1549 1548 1547 1547 1546 1545 1544 1543 1542 1541 1540 1539 1537 1536 1535 1533 1532 1531 1530 1528 1527 1525 1524 1522 1521 1519 1518 1517 1516 1515 1514 1514 1513 1513 1513 1514 1514 1514 1515 1515 1516 1516 1516 1517 1517 1517 1518 1518 1519 1519 1520 1520 1521 1521 1522 1522 1523 1523 1524 1524 1525 1525 1526 1526 1526 1526 1526 1526 1526 1527 1526 1526 1526 1526 1526 1526 1526 1526 1525 1525 1525
1552 1552 1551 1550 1549 1549 1548 1547 1546 1545 1544 1543 1542 1541 1540 1539 1538 1537 1536 1534 1533 1531 1530 1529 1528 1527 1525 1524 1523 1521 1520 1520 1519 1517 1517 1516 1515 1515 1515 1515 1516 1516 1516 1517 1517 1517 1518 1518 1519 1519 1519 1520 1520 1520 1521 1521 1522 1523 1523 1524 1524 1524 1525 1525 1526 1526 1526 1526 1526 1527 1527 1527 1527 1527 1527 1527 1527 1527 1527 1526 1526 1526 1526 1526 1525
1552 1552 1551 1551 1550 1549 1548 1547 1546 1545 1544 1543 1542 1541 1540 1539 1538 1537 1536 1535 1533 1532 1531 1530 1529 1528 1527 1526 1524 1523 1522 1521 1521 1520 1519 1518 1518 1517 1517 1517 1517 1517 1518 1518 1518 1519 1519 1520 1520 1520 1521 1521 1521 1522 1522 1523 1523 1523 1524 1525 1525 1525 1525 1525 1526 1526 1526 1527 1528 1528 1528 1528 1528 1528 1527 1527 1527 1527 1527 1527 1526 1526 1526 1526 1525
1552 1552 1551 1551 1550 1549 1548 1547 1546 1545 1544 1543 1542 1541 1540 1539 1538 1538 1537 1535 1534 1533 1532 1531 1530 1529 1528 1527 1526 1525 1524 1523 1523 1522 1521 1520 1520 1519 1519 1518 1518 1519 1519 1519 1519 1520 1520 1521 1521 1521 1522 1522 1522 1523 1523 1523 1524 1524 1524 1525 1525 1525 1525 1526 1526 1526 1527 1527 1528 1528 1528 1528 1527 1527 1527 1527 1527 1527 1527 1527 1526 1526 1526 1526 1526
1552 1551 1551 1550 1550 1549 1548 1547 1546 1546 1545 1543 1542 1541 1540 1539 1539 1538 1537 1536 1535 1533 1532 1532 1531 1530 1529 1528 1527 1526 1525 1524 1524 1523 1523 1522 1522 1521 1521 1520 1520 1520 1520 1520 1521 1521 1521 1522 1522 1522 1522 1523 1523 1523 1524 1524 1524 1525 1525 1525 1525 1526 1526 1526 1526 1527 1527 1527 1527 1527 1528 1527 1527 1527 1527 1527 1527 1527 1527 1526 1526 1526 1526 1526 1526
1551 1550 1550 1550 1550 1549 1548 1547 1547 1546 1545 1544 1543 1541 1540 1539 1539 1538 1537 1536 1535 1534 1533 1532 1531 1530 1529 1528 1528 1527 1526 1525 1525 1524 1524 1524 1523 1523 1522 1522 1521 1521 1521 1521 1521 1522 1522 1522 1522 1523 1523 1523 1523 1524 1524 1524 1525 1525 1525 1525 1526 1526 1526 1526 1526 1527 1527 1527 1527 1527 1527 1527 1527 1527 1526 1526 1526 1526 1526 1526 1526 1526 1526 1526 1526
1550 1550 1550 1549 1549 1549 1548 1547 1546 1545 1544 1544 1543 1541 1540 1539 1539 1538 1537 1536 1535 1534 1533 1532 1531 1530 1529 1528 1528 1527 1527 1526 1526 1525 1525 1524 1524 1523 1523 1523 1522 1522 1522 1522 1522 1522 1522 1522 1522 1523 1523 1523 1523 1523 1524 1524 1524 1525 1525 1525 1525 1526 1526 1526 1526 1527 1527 1527 1527 1527 1527 1527 1526 1526 1526 1526 1525 1525 1525 1525 1525 1525 1526 1526 1526
1550 1549 1549 1549 1549 1549 1548 1547 1546 1545 1544 1543 1542 1541 1540 1539 1538 1538 1537 1536 1536 1535 1534 1533 1532 1531 1529 1528 1528 1527 1527 1526 1526 1526 1525 1525 1525 1524 1524 1524 1523 1523 1523 1522 1522 1522 1522 1522 1522 1522 1522 1523 1523 1523 1523 1524 1524 1524 1525 1525 1525 1525 1526 1526 1527 1527 1527 1527 1527 1527 1526 1526 1526 1525 1525 1525 1524 1524 1524 1524 1524 1524 1525 1526 1526
1550 1549 1549 1549 1549 1548 1547 1546 1545 1544 1544 1543 1542 1541 1540 1539 1538 1537 1537 1536 1536 1535 1534 1533 1532 1531 1530 1529 1528 1527 1527 1527 1526 1526 1526 1526 1526 1525 1525 1524 1524 1524 1523 1523 1522 1522 1522 1522 1522 1522 1522 1522 1522 1522 1523 1523 1523 1524 1524 1525 1525 1526 1526 1526 1527 1527 1527 1527 1526 1526 1526 1526 1525 1525 1525 1524 1524 1523 1523 1523 1523 1524 1525 1525 1525